Regional Weather Roundup
Issued by NWS

Home | Current Version | Previous Version | Graphics & Text | Print | Product List | Glossary On
Versions: 1 2 3 4 5 6 7 8 9 10 11 12 13 14 15 16 17 18 19 20 21 22 23 24 25 26 27
000
ASUS45 KCYS 240110
RWRWY

WYOMING REGIONAL WEATHER ROUNDUP
NATIONAL WEATHER SERVICE CHEYENNE WY
700 PM MDT FRI SEP 23 2016

NOTE:  "FAIR" INDICATES FEW OR NO CLOUDS BELOW 12,000 FEET
WITH NO SIGNIFICANT WEATHER AND/OR OBSTRUCTIONS TO VISIBILITY.

WYZ001-240200-
YELLOWSTONE NATIONAL PARK

CITY           SKY/WX    TMP DP  RH WIND       PRES   REMARKS
LK YELLOWSTONE   N/A     43  41  93 VRB7      29.98F
W YELLOWSTONE  NOT AVBL

$$
WYZ002>013-054>058-071-098>099-240200-
NORTHERN WYOMING

CITY           SKY/WX    TMP DP  RH WIND       PRES   REMARKS
JACKSON        MOCLDY    45  43  93 E7        29.97S
CODY           LGT RAIN  49  48  97 N7        29.97R
GREYBULL       LGT RAIN  52  48  86 E7        29.96F
WORLAND        CLOUDY    50  47  89 E9        29.97S
SHERIDAN       LGT RAIN  52  50  93 N10       29.91F
BUFFALO        LGT RAIN  50  48  93 NW10      29.96R
GILLETTE       CLOUDY    51  48  89 W23G31    29.88R
HULETT         LGT RAIN  59  55  88 W7        29.88R
NEWCASTLE      RAIN      52  45  76 NW15G29   29.91R

$$
WYZ014>020-022>026-101>103-240200-
CENTRAL WYOMING

CITY           SKY/WX    TMP DP  RH WIND       PRES   REMARKS
BIG PINEY      CLOUDY    43  37  79 SW7       30.01R
PINEDALE       LGT RAIN  37  37 100 SE13G18   30.03R WCI  29
DUBOIS         CLOUDY    43  37  81 SE9       29.99F
LANDER         FAIR      49  43  80 W8        29.91S
RIVERTON       FAIR      50  42  74 S13       29.92F
CASPER         CLOUDY    47  42  83 W9        29.93F
DOUGLAS        NOT AVBL

$$
WYZ021-027>030-104>119-240200-
SOUTHERN WYOMING

CITY           SKY/WX    TMP DP  RH WIND       PRES   REMARKS
EVANSTON       LGT RAIN  39  35  86 W12       30.05R WCI  32
FORT BRIDGER   FAIR      41  38  88 W16       30.06R
ROCK SPRINGS   FAIR      40  35  83 W6        30.04R
DIXON          MOCLDY    45  36  72 W7        30.08S
RAWLINS        CLOUDY    44  35  70 S9        30.04R
SARATOGA       CLOUDY    43  34  70 E5        30.05R
LARAMIE        MOCLDY    43  35  73 W9        30.00F
CHEYENNE       FAIR      53  34  48 NW23G33   29.84R
TORRINGTON     CLOUDY    57  42  57 NW13      29.85R
PINE BLUFFS    FAIR      54  37  54 NW28G37   29.85R

$$




USA.gov is the U.S. government's official web portal to all federal, state and local government web resources and services.